Hourly Data Report for May 28, 2021

OTTAWA INTL A
ONTARIO
Current Station Operator: NAVCAN

45°19'00.000" N
75°40'00.000" W
114.90 m
6106001
71628
YOW

Download Data

Hourly Data (May 2021)
Hourly Data Report for May 28, 2021
TIME
LST
Temp Definition
°C
Dew Point Definition
°C
Rel Hum Definition
%
Precip. Amount Definition
mm

Wind Dir Definition
10's deg

Wind Spd Definition
km/h
Visibility Definition
km
Stn Press Definition
kPa
Hmdx Definition


Wind Chill Definition


Weather Definition


00:00 4.7 -3.4 56   2 15 24.1 100.93     LegendNANA
01:00 2.5 -3.3 66   5 8 24.1 100.92     Clear
02:00 2.8 -3.9 61   2 12 24.1 100.97     LegendNANA
03:00 3.2 -3.9 60   1 14 24.1 101.00     LegendNANA
04:00 2.5 -4.8 59   2 10 24.1 100.97     Mostly Cloudy
05:00 3.1 -5.3 54   1 13 24.1 101.05     LegendNANA
06:00 3.5 -5.5 52   2 15 24.1 101.08     LegendNANA
07:00 3.9 -6.2 48   1 22 24.1 101.11     Mostly Cloudy
08:00 4.7 -6.0 46   1 14 24.1 101.08     LegendNANA
09:00 5.4 -6.2 43   5 9 24.1 101.03     LegendNANA
10:00 6.7 -7.3 36   32 8 24.1 100.99     Clear
11:00 9.0 -6.3 33   1 10 24.1 100.93     LegendNANA
12:00 9.4 -7.6 29   5 14 24.1 100.86     LegendNANA
13:00 10.5 -7.4 28   4 11 24.1 100.80     Mostly Cloudy
14:00 11.7 -7.8 25   4 8 24.1 100.73     LegendNANA
15:00 12.4 -6.7 26   3 15 24.1 100.64     LegendNANA
16:00 12.8 -7.8 23   6 22 24.1 100.57     Mostly Cloudy
17:00 12.2 -7.2 25   7 9 24.1 100.56     LegendNANA
18:00 12.1 -6.2 27   6 8 24.1 100.56     LegendNANA
19:00 11.6 -5.7 29   4 12 24.1 100.57     Mostly Cloudy
20:00 10.5 -5.3 32   4 7 24.1 100.60     LegendNANA
21:00 7.7 -4.5 42   31 8 24.1 100.64     LegendNANA
22:00 6.7 -3.5 48   31 5 24.1 100.63     Mainly Clear
23:00 4.9 -2.6 58   31 7 24.1 100.61     LegendNANA

Notes on Data Quality.

Legend

  • E = Estimated
  • M = Missing
  • NA = Not Available*
  • [empty] = Indicates an unobserved value
Date modified: